This is the latest recevied weather packets stored in our database for station/object K5MGY. If no packets are shown the sender has not sent any weather packets the latest 10 day(s).
| Time | Temp. | Humidity | Pressure | Rain* | Wind** | Luminosity | Snow |
|---|---|---|---|---|---|---|---|
| 1787837781 | 28.33° C | 71% | 1039.6 hPa | 0 mm | - | 98 W/m² | - |
| 1787837476 | 27.78° C | 72% | 1039.5 hPa | 0 mm | - | 87 W/m² | - |
| 1787837171 | 27.78° C | 72% | 1039.5 hPa | 0 mm | - | 33 W/m² | - |
| 1787836869 | 27.78° C | 72% | 1039.5 hPa | 0 mm | - | 31 W/m² | - |
| 1787836565 | 27.78° C | 73% | 1039.3 hPa | 0 mm | - | 28 W/m² | - |
| 1787836265 | 27.22° C | 73% | 1039.5 hPa | 0 mm | - | 27 W/m² | - |
| 1787835960 | 27.22° C | 73% | 1039.3 hPa | 0 mm | - | 25 W/m² | - |
| 1787835656 | 26.67° C | 74% | 1039.2 hPa | 0 mm | - | 23 W/m² | - |
| 1787835355 | 26.67° C | 74% | 1039.3 hPa | 0 mm | - | 21 W/m² | - |
| 1787835051 | 26.67° C | 74% | 1039.2 hPa | 0 mm | - | 20 W/m² | - |
| 1787834749 | 26.67° C | 74% | 1039.3 hPa | 0 mm | - | 18 W/m² | - |
| 1787834445 | 26.67° C | 74% | 1039.2 hPa | 0 mm | - | 16 W/m² | - |
| 1787834141 | 26.67° C | 75% | 1039.2 hPa | 0 mm | - | 14 W/m² | - |
| 1787833836 | 26.11° C | 76% | 1039 hPa | 0 mm | - | 12 W/m² | - |
| 1787833531 | 26.11° C | 77% | 1039 hPa | 0 mm | - | 10 W/m² | - |
| 1787833227 | 25.56° C | 79% | 1038.9 hPa | 0 mm | - | 8 W/m² | - |
| 1787832922 | 25.56° C | 80% | 1038.6 hPa | 0 mm | - | 6 W/m² | - |
| 1787832618 | 25.56° C | 79% | 1038.9 hPa | 0 mm | - | 4 W/m² | - |
| 1787832316 | 25.56° C | 78% | 1038.6 hPa | 0 mm | - | 3 W/m² | - |
| 1787832016 | 25.56° C | 78% | 1038.5 hPa | 0 mm | - | 2 W/m² | - |
| 1787831710 | 25.56° C | 78% | 1038.4 hPa | 0 mm | - | 1 W/m² | - |
| 1787831409 | 25.56° C | 78% | 1038.4 hPa | 0 mm | - | 0 W/m² | - |
| 1787831107 | 25.56° C | 78% | 1038.2 hPa | 0 mm | - | 0 W/m² | - |
| 1787830805 | 25.56° C | 77% | 1038.5 hPa | 0 mm | - | 0 W/m² | - |
| 1787830509 | 25.56° C | 78% | 1038.3 hPa | 0 mm | - | 0 W/m² | - |
* Rain latest hour (hover to see other rain measurements)
** Current wind speed in m/s (hover to see current wind gust speed)